Location: Esplingerode
(51.5334°N, 10.1941°E)
Time: 04:22:29
(UTC+00:00)

Daily predictions for brighter satellites

Satellite Brightness Start Highest point End
(mag) Time Altitude Azimuth Time Altitude Azimuth Time Altitude Azimuth
NOSS 8 (E) 4.3 00:02:07 33° S 00:03:14 54° SE 00:06:08 10° NE
ATLAS CENTAUR R/B 4.2 00:08:22 10° WSW 00:14:44 84° NNW 00:32:42 10° ENE
Cosmos 1825 2.4 00:13:02 24° S 00:15:08 61° E 00:18:53 10° NNE
Cosmos 540 Rocket 4.2 00:15:11 19° SSE 00:18:32 43° ESE 00:23:22 10° NE
Cosmos 990 Rocket 4.2 00:14:12 10° NNW 00:19:16 53° WSW 00:22:37 20° S
Cosmos 1408 2.7 00:19:18 25° SSW 00:21:16 66° WNW 00:24:57 10° N
Cosmos 1437 4.4 00:19:38 10° NNE 00:22:01 24° ENE 00:24:23 10° SE
Cosmos 1242 Rocket 3.2 00:19:43 10° N 00:23:14 51° ENE 00:26:09 14° SSE
Cosmos 1656 Rocket 3.7 00:19:21 10° NNW 00:25:04 75° WSW 00:30:16 12° SSE
SL-16 R/B 2.9 00:19:56 12° SW 00:25:08 50° NW 00:30:40 10° NNE
Cosmos 2221 2.6 00:20:50 10° N 00:25:10 77° ENE 00:28:24 17° SSE
Cosmos 405 Rocket 2.5 00:23:36 25° S 00:25:39 89° E 00:29:22 10° NNE
Cosmos 841 Rocket 4.2 00:23:03 18° S 00:26:35 43° ESE 00:31:26 10° NE
Cosmos 2058 3.1 00:24:22 21° S 00:26:58 64° E 00:31:03 10° NNE
USA 229 DEB 3.6 00:22:35 17° SW 00:27:47 80° SE 00:34:45 10° NE
USA 229 3.6 00:22:43 17° SW 00:27:54 79° SE 00:34:51 10° NE
X-37B 1.8 00:28:47 24° SSE 00:28:47 24° SSE 00:31:02 10° ESE
Meteor 2-13 Rocket 4.5 00:23:59 19° SSW 00:28:32 80° W 00:34:45 10° N
Cosmos 2237 Rocket 4.1 00:24:08 10° W 00:28:42 25° NW 00:33:17 10° NNE
Cosmos 1898 Rocket 3.8 00:27:28 10° NNW 00:32:34 51° WSW 00:36:10 18° S
Cosmos 1937 Rocket 3.6 00:27:36 10° NNW 00:32:55 68° WSW 00:37:19 15° S
Cosmos 2369 Rocket 2.7 00:29:39 10° NW 00:35:03 44° WSW 00:38:58 18° S
Nadezhda 4 Rocket 4.1 00:30:48 17° S 00:35:38 76° E 00:41:46 10° NNE
NOSS 8 (F) 4.3 00:33:59 20° WSW 00:36:00 67° NW 00:38:58 10° NE
NOSS 3-1 (C) 3.6 00:31:10 11° SW 00:36:31 70° NW 00:43:11 10° NE
Aureole 3 Rocket 3.6 00:33:11 10° N 00:36:53 57° ENE 00:41:50 10° SSE
SJ 16-02 3.3 00:35:55 10° WNW 00:38:19 15° W 00:40:01 12° WSW
YAOGAN 11 4.4 00:35:34 20° S 00:38:30 55° W 00:42:57 10° NNW
Cosmos 1356 4.2 00:37:29 21° SW 00:39:23 41° WNW 00:42:38 10° N
USA 307 4.5 00:38:07 17° SSE 00:39:48 21° SE 00:43:01 10° E
FALCON 9 DEB 3.1 00:36:52 10° WNW 00:40:01 74° N 00:43:10 10° E
CREW DRAGON DEMO-1 DEB 2.4 00:40:05 36° SSW 00:40:43 49° SSE 00:43:06 10° E
USA 215 3.7 00:38:07 10° ENE 00:44:34 64° NNW 00:51:01 10° W
NOSS 2-3 (E) 4.1 00:42:31 12° WSW 00:46:24 62° NW 00:51:36 10° NE
NOSS 3-1 (A) 3.4 00:42:41 15° SW 00:47:24 87° NW 00:54:01 10° NE
CZ-4 R/B 3.8 00:45:23 10° NNE 00:50:03 75° WNW 00:53:33 18° SSW
ATLAS 5 CENTAUR R/B 2.9 00:48:04 15° SSE 00:50:29 25° ESE 00:54:06 10° ENE
Helios 1B rocket 3.4 00:46:54 10° NNE 00:50:46 39° E 00:54:08 13° SSE
USA 308 4.2 00:53:26 17° S 00:55:37 26° SE 00:59:10 10° E
Cosmos 1814 Rocket 4.5 00:51:51 15° S 00:55:58 52° ESE 01:00:58 10° NNE
Cosmos 1633 3.1 00:53:22 16° SSE 00:55:59 50° E 00:59:25 10° NNE
ADEOS Rocket 3.8 00:49:19 10° SE 00:56:22 61° ENE 01:02:45 10° N
FALCON 9 DEB 2.7 00:54:00 10° WNW 00:57:06 86° SSW 01:00:11 10° ESE
CZ-3B R/B 2.9 00:48:17 10° WNW 00:57:52 67° N 01:00:56 10° E
UNK 3.7 00:54:25 10° SSE 00:58:57 88° ENE 01:03:37 10° NNW
Cosmos 1606 2.7 00:57:23 10° NNW 01:01:15 70° W 01:04:12 16° S
NOSS 8 (H) 4.4 01:00:24 16° WSW 01:02:39 62° NW 01:05:38 10° NE
Helios 1A 3.8 01:00:06 18° SSW 01:02:40 35° W 01:06:34 10° NNW
FALCON 9 DEB 2.8 01:00:45 10° WNW 01:03:53 89° NNW 01:07:00 10° ESE
Cosmos 1570 Rocket 4.3 01:01:44 15° S 01:06:00 62° ESE 01:11:11 10° NNE
SL-16 R/B 2.5 01:00:08 10° SSE 01:06:19 76° WSW 01:12:32 10° NNW
Cosmos 1933 4.1 01:02:39 10° N 01:06:41 53° ENE 01:10:41 10° SSE
FALCON 9 DEB 2.7 01:04:14 10° WNW 01:07:21 81° SSW 01:10:27 10° ESE
Cosmos 372 Rocket 4.1 01:02:43 10° NNW 01:07:53 60° WSW 01:13:02 10° S
Cosmos 1125 Rocket 4.2 01:05:20 10° NNW 01:10:33 58° ENE 01:15:45 10° SE
USA 305 3.7 01:10:31 17° SSW 01:13:19 35° SE 01:17:12 10° ENE
USA 290 2.8 01:11:15 16° S 01:13:33 48° ESE 01:16:41 10° NE
Lacrosse 4 Rocket 1.3 01:10:18 10° NW 01:14:24 66° WSW 01:18:24 10° SSE
Cosmos 1151 Rocket 4.4 01:11:59 10° N 01:15:58 37° ENE 01:19:55 10° SE
CZ-4C R/B 4.3 01:14:37 10° SE 01:16:28 12° ESE 01:18:26 10° E
Meteor 1-28 Rocket 4.4 01:12:54 10° SE 01:16:31 44° ENE 01:20:10 10° N
Cosmos 1092 Rocket 4.0 01:11:05 13° S 01:16:40 90° ESE 01:22:52 10° N
CENTAUR R/B 4.1 01:10:53 10° NW 01:18:22 53° NNE 01:26:51 10° ESE
Cosmos 2098 Rocket 3.6 01:15:08 15° SSW 01:19:31 55° WNW 01:23:45 10° N
Resurs 1-4 Rocket 2.1 01:14:14 10° NNE 01:19:35 86° WNW 01:24:23 13° SSW
Cosmos 1437 Rocket 4.2 01:16:59 10° NW 01:20:03 23° W 01:22:18 14° SW
Cosmos 1763 Rocket 4.3 01:15:44 11° SW 01:20:19 41° NW 01:25:13 10° NNE
BREEZE-M R/B 3.8 01:18:12 15° SSW 01:20:33 30° SE 01:25:26 10° E
NOSS 5 (C) 4.2 01:17:41 10° NW 01:20:42 71° SW 01:24:14 10° SE
Cosmos 2208 Rocket 4.3 01:16:33 13° S 01:21:21 68° ESE 01:26:48 10° NNE
Meteor 2-19 Rocket 4.5 01:16:27 13° SSW 01:22:04 84° W 01:28:15 10° N
Meteor 1-29 3.9 01:20:22 10° NNE 01:23:38 41° E 01:26:52 10° S
SL-4 R/B 1.6 01:22:45 10° W 01:26:30 88° S 01:30:01 10° E
MINOTAUR 4 R/B 4.0 01:26:54 10° SSE 01:30:26 80° WSW 01:33:59 10° NNW
NPP 3.7 01:25:20 10° NNE 01:30:46 87° WNW 01:35:57 11° SSW
ADEOS II 2.5 01:25:59 10° NNE 01:31:13 61° ESE 01:36:25 10° S
NOSS 2-2 (D) 3.4 01:30:21 14° SSW 01:33:06 53° SE 01:36:50 10° NE
Lacrosse 5 rocket 1.6 01:31:34 10° WNW 01:35:07 60° NNE 01:38:45 10° ESE
USA 306 3.4 01:32:05 13° SW 01:35:37 46° SSE 01:39:42 10° ENE
Cosmos 921 Rocket 3.2 01:32:38 13° SW 01:36:16 58° WNW 01:40:25 10° NNE
FALCON 9 DEB 4.1 01:33:38 10° W 01:36:31 26° SW 01:39:23 10° SSE
Meteor 2-3 Rocket 4.0 01:31:57 10° S 01:37:29 68° E 01:43:02 10° NNE
CZ-2D R/B 2.3 01:33:07 10° N 01:38:17 64° WNW 01:43:15 11° SSW
Cosmos 1943 3.8 01:33:25 10° SW 01:38:53 51° NW 01:44:25 10° NNE
Alouette 2 Rocket 3.8 01:36:13 10° N 01:39:46 60° ENE 01:43:40 10° SSE
IDEFIX/ARIANE 42P 3.5 01:40:31 10° NNE 01:45:35 46° E 01:50:36 10° S
ASTEX 1 4.1 01:41:41 10° SSE 01:46:30 55° ENE 01:51:18 10° N
Cosmos 2151 3.1 01:44:56 11° SSW 01:49:00 66° WNW 01:53:13 10° N
AQUA 3.9 01:45:39 10° N 01:50:24 70° WNW 01:55:08 10° SSW
Cosmos 1825 4.4 01:48:53 10° W 01:51:02 14° WNW 01:53:11 10° NNW
EXPRESS MD2 4.5 01:43:05 10° WSW 01:51:50 60° SSE 01:56:04 10° E
Cosmos 1076 Rocket 4.4 01:49:46 11° SW 01:53:35 36° WNW 01:57:33 10° N
Cosmos 1437 4.3 01:52:13 10° NW 01:54:05 16° W 01:55:51 11° SW
Meteor 1-26 Rocket 4.4 01:48:36 10° NNW 01:54:25 74° W 02:00:21 10° S
Cosmos 1656 4.1 01:57:26 10° NNW 02:03:10 73° ENE 02:08:52 10° SE
X-37B 2.1 02:02:08 10° WSW 02:04:26 18° SSW 02:06:44 10° SSE
CBERS-1 4.2 01:59:48 10° NNE 02:04:57 74° ESE 02:10:05 10° S
IRS-1D 3.6 02:00:01 10° NNE 02:05:13 89° ESE 02:10:16 10° SSW
BREEZE-M DEB (TANK) 1.8 02:04:27 10° W 02:06:40 36° SSW 02:09:04 10° ESE
Cosmos 1812 3.1 02:05:13 10° N 02:09:03 69° ENE 02:12:52 10° SSE
Cosmos 1553 Rocket 4.2 02:02:58 10° NNW 02:09:12 61° W 02:15:16 10° S
NOSS 2-2 (E) 3.6 02:08:32 10° WSW 02:11:59 58° NW 02:16:02 10° NE
Cosmos 2292 Rocket 2.9 02:10:15 10° SSW 02:13:09 51° WNW 02:16:08 10° N
SL-08 R/B 3.9 02:09:28 10° SSE 02:14:05 62° ENE 02:18:49 10° N
Cosmos 1697 Rocket 3.8 02:09:02 10° NNW 02:14:35 52° NE 02:20:06 10° SE
S3M 4.0 02:09:09 10° NNW 02:15:19 77° W 02:21:30 10° S
Cosmos 1782 3.1 02:12:02 10° NNW 02:15:56 50° W 02:19:47 10° S
MSX 4.3 02:12:14 10° NNE 02:17:59 64° ESE 02:23:42 10° S
USA 281 3.3 02:12:03 10° SSE 02:18:36 68° WSW 02:25:11 10° NNW
